Location: Berlin
(52.5171°N, 13.3759°E)
Time: 13:47:27
(UTC+01:00)

ISS - Pass Details

Date: 14 November 2017
Orbit: 402 x 407 km, 51.6° (Epoch: 24 November)

Event Time Altitude Azimuth Distance (km) Brightness Sun altitude
Exits shadow 04:12:34 13° 109° (ESE) 1,293 -0.6 -29.3°
Drops below altitude 10° 04:12:59 10° 108° (ESE) 1,460 -0.3 -29.2°
Sets 04:15:03 0° 106° (ESE) 2,314 1.0 -28.9°
